TimeCST,TemperatureF,Dew PointF,Humidity,Sea Level PressureIn,VisibilityMPH,Wind Direction,Wind SpeedMPH,Gust SpeedMPH,PrecipitationIn,Events,Conditions,WindDirDegrees,DateUTC
12:53 AM,64.0,55.0,73,30.02,10.0,South,13.8,-,N/A,,Mostly Cloudy,190,2012-12-04 06:53:00
1:53 AM,63.0,55.9,78,30.02,10.0,South,13.8,-,N/A,,Overcast,190,2012-12-04 07:53:00
2:51 AM,64.4,55.4,73,30.02,10.0,South,13.8,21.9,N/A,,Mostly Cloudy,190,2012-12-04 08:51:00
2:53 AM,64.0,55.9,75,30.01,10.0,South,13.8,21.9,N/A,,Mostly Cloudy,190,2012-12-04 08:53:00
3:53 AM,64.0,57.0,78,30.01,10.0,South,12.7,-,N/A,,Overcast,190,2012-12-04 09:53:00
4:53 AM,63.0,57.9,84,30.00,10.0,South,17.3,-,N/A,,Mostly Cloudy,190,2012-12-04 10:53:00
5:06 AM,62.6,57.2,82,30.01,10.0,SSW,15.0,-,N/A,,Scattered Clouds,200,2012-12-04 11:06:00
5:50 AM,64.4,59.0,83,30.02,10.0,SSW,15.0,20.7,N/A,,Overcast,200,2012-12-04 11:50:00
5:53 AM,64.0,59.0,84,30.02,10.0,South,12.7,-,N/A,,Overcast,190,2012-12-04 11:53:00
6:28 AM,64.4,59.0,83,30.03,10.0,South,17.3,23.0,0.00,Rain,Light Rain,190,2012-12-04 12:28:00
6:53 AM,64.0,59.0,84,30.03,10.0,SSW,15.0,20.7,0.00,,Overcast,200,2012-12-04 12:53:00
7:27 AM,64.4,60.8,88,30.05,10.0,WSW,10.4,-,N/A,,Overcast,240,2012-12-04 13:27:00
7:44 AM,62.6,60.8,94,30.06,10.0,West,10.4,-,N/A,,Overcast,260,2012-12-04 13:44:00
7:53 AM,62.1,60.1,93,30.06,10.0,West,6.9,-,0.00,Rain,Light Rain,260,2012-12-04 13:53:00
8:41 AM,60.8,60.8,100,30.08,4.0,Calm,Calm,-,0.02,Rain,Rain,0,2012-12-04 14:41:00
8:53 AM,61.0,60.1,97,30.07,6.0,West,3.5,-,0.02,Rain,Light Rain,280,2012-12-04 14:53:00
9:10 AM,60.8,60.8,100,30.09,5.0,WSW,5.8,-,0.00,Rain,Light Rain,250,2012-12-04 15:10:00
9:19 AM,60.8,60.8,100,30.10,3.0,WSW,5.8,-,0.00,Rain,Light Rain,240,2012-12-04 15:19:00
9:28 AM,60.8,60.8,100,30.09,2.0,NW,4.6,-,0.03,Rain,Rain,320,2012-12-04 15:28:00
9:31 AM,60.8,60.8,100,30.09,1.8,WNW,5.8,-,0.04,Rain,Rain,300,2012-12-04 15:31:00
9:39 AM,60.8,60.8,100,30.11,2.0,Calm,Calm,-,0.05,Rain,Rain,0,2012-12-04 15:39:00
9:53 AM,62.1,60.1,93,30.09,3.0,North,8.1,-,0.07,Rain,Rain,360,2012-12-04 15:53:00
10:07 AM,62.6,60.8,94,30.09,7.0,North,6.9,-,0.01,Rain,Light Rain,360,2012-12-04 16:07:00
10:17 AM,62.6,60.8,94,30.11,10.0,NW,11.5,-,0.01,Rain,Light Rain,310,2012-12-04 16:17:00
10:28 AM,59.0,55.4,88,30.08,10.0,NNE,16.1,20.7,0.01,Rain,Light Rain,20,2012-12-04 16:28:00
10:39 AM,57.2,55.4,94,30.09,10.0,North,13.8,-,0.01,,Overcast,350,2012-12-04 16:39:00
10:53 AM,57.0,55.0,93,30.10,10.0,NNW,12.7,-,0.01,,Overcast,330,2012-12-04 16:53:00
11:53 AM,53.6,51.8,94,30.11,6.0,North,11.5,-,N/A,Rain,Light Rain,350,2012-12-04 17:53:00
12:53 PM,54.0,51.1,90,30.10,10.0,North,8.1,-,0.00,,Overcast,10,2012-12-04 18:53:00
1:24 PM,53.6,50.0,88,30.12,10.0,North,9.2,-,N/A,,Overcast,350,2012-12-04 19:24:00
1:53 PM,53.1,50.0,89,30.11,10.0,North,11.5,-,N/A,,Overcast,10,2012-12-04 19:53:00
2:28 PM,53.6,48.2,82,30.14,10.0,NNW,9.2,-,N/A,,Overcast,340,2012-12-04 20:28:00
2:53 PM,53.1,48.9,86,30.14,10.0,North,12.7,-,N/A,,Overcast,350,2012-12-04 20:53:00
3:53 PM,53.1,48.0,83,30.18,10.0,North,10.4,-,N/A,,Mostly Cloudy,360,2012-12-04 21:53:00
4:53 PM,53.6,46.4,77,30.19,10.0,North,8.1,-,N/A,,Overcast,360,2012-12-04 22:53:00
5:53 PM,52.0,44.1,74,30.20,10.0,North,8.1,-,N/A,,Scattered Clouds,10,2012-12-04 23:53:00
6:53 PM,50.0,43.0,77,30.24,10.0,North,6.9,-,N/A,,Clear,360,2012-12-05 00:53:00
7:53 PM,48.9,41.0,74,30.26,10.0,NNE,4.6,-,N/A,,Clear,20,2012-12-05 01:53:00
8:53 PM,45.0,39.0,80,30.26,10.0,North,6.9,-,N/A,,Clear,360,2012-12-05 02:53:00
9:53 PM,42.1,37.0,82,30.27,10.0,Calm,Calm,-,N/A,,Clear,0,2012-12-05 03:53:00
10:53 PM,39.9,37.0,89,30.30,10.0,West,3.5,-,N/A,,Clear,280,2012-12-05 04:53:00
11:53 PM,37.9,36.0,93,30.30,10.0,Calm,Calm,-,N/A,,Clear,0,2012-12-05 05:53:00